Flag for U.S.A. Weather past 2 weeks in Grand Rapids, Michigan, U.S.A.

Now
37 °F

Clear.


Feels Like: 29 °F
Forecast: 34 / 58 °F
Wind: 12 mph from Southeast

Location: Kent County International Airport


UV Index: 0 (Low)

Visibility: 10 mi


Pressure: 30.31 "Hg

Humidity: 60%

Dew point: 24 °F

Location of Grand RapidsLocation

Historic Weather in Grand Rapids

°F

Grand Rapids temperature yesterday

Maximum temperature yesterday: 48 °F (at 4:53 PM)
Minimum temperature yesterday: 22 °F (at 5:53 AM)
Average temperature yesterday: 36 °F

Past Weeks' High & Low Weather Summary

 TemperatureHumidityPressure
High69 °F (Apr 12, 11:53 AM)96% (Apr 4, 8:53 AM)30.42 "Hg (Apr 4, 8:53 AM)
Low22 °F (Apr 16, 5:53 AM)20% (Apr 11, 3:53 PM)29.33 "Hg (Apr 14, 5:53 AM)
Average44 °F59%29.92 "Hg
* Reported Apr 2 1:53 AM — Apr 17 1:53 AM, Grand Rapids, Weather by CustomWeather, © 2014

Note: Actual official high and low records may vary slightly from our data, if they occured in-between our weather recording intervals... More about our weather records

Advertising

Historic Weather Conditions — Data for Previous 24 hours

 ConditionsComfort  
Time TempWeatherWind HumidityBarometerVisibility
1:53 AM
Apr 17
37 °FClear.14 mph60%30.29 "Hg10 mi
12:53 AM38 °FClear.15 mph63%30.29 "Hg10 mi
11:53 PM
Apr 16
39 °FOvercast.16 mph60%30.29 "Hg10 mi
10:53 PM40 °FOvercast.16 mph55%30.30 "Hg10 mi
9:53 PM41 °FPartly cloudy.13 mph49%30.31 "Hg10 mi
8:53 PM43 °FOvercast.13 mph42%30.30 "Hg10 mi
7:53 PM45 °FOvercast.16 mph38%30.28 "Hg10 mi
6:53 PM47 °FOvercast.15 mph34%30.29 "Hg10 mi
5:53 PM48 °FOvercast.14 mph33%30.30 "Hg10 mi
4:53 PM48 °FOvercast.18 mph33%30.30 "Hg10 mi
3:53 PM47 °FOvercast.15 mph36%30.32 "Hg10 mi
2:53 PM46 °FOvercast.14 mph35%30.33 "Hg10 mi
1:53 PM45 °FOvercast.13 mph38%30.36 "Hg10 mi
12:53 PM41 °FPartly sunny.10 mph41%30.40 "Hg10 mi
11:53 AM39 °FScattered clouds.10 mph45%30.42 "Hg10 mi
10:53 AM38 °FScattered clouds.10 mph45%30.42 "Hg10 mi
9:53 AM35 °FBroken clouds.14 mph48%30.41 "Hg10 mi
8:53 AM30 °FPartly sunny.8 mph61%30.41 "Hg10 mi
7:53 AM26 °FPassing clouds.6 mph71%30.38 "Hg10 mi
6:53 AM23 °FPassing clouds.7 mph74%30.36 "Hg10 mi
5:53 AM22 °FClear.6 mph78%30.34 "Hg10 mi
4:53 AM23 °FClear.No wind74%30.32 "Hg10 mi
3:53 AM23 °FClear.No wind74%30.30 "Hg10 mi
Weather by CustomWeather, © 2014

See weather overview